Location: Aufkirchen
(47.9603°N, 11.3653°E)
Time: 11:32:47
(UTC+01:00)

Tiros 1 - Pass Details

Date: 27 November 2020
Orbit: 630 x 663 km, 48.4° (Epoch: 21 January)

Event Time Altitude Azimuth Distance (km) Brightness Sun altitude
Rises 18:43:00 0° 268° (W) 2,987 12.1 -22.3°
Reaches altitude 10° 18:45:21 10° 269° (W) 2,072 10.9 -22.7°
Maximum altitude 18:50:09 84° 358° (N) 663 7.1 -23.5°
Enters shadow 18:50:30 76° 64° (ENE) 678 7.0 -23.6°
Drops below altitude 10° 18:54:55 10° 87° (E) 2,054 - -24.3°
Sets 18:57:14 0° 89° (E) 2,959 - -24.7°
